Powrót do katalogu

IRS P4

OCEANSAT 1

AktywnyNaukaSSO
NORAD 25758·PAYLOAD·🇮🇳 India

Wystrzelony May 26, 1999 z Satish Dhawan Space Centre

Loading…

Następne Przeloty (najbliższe 24 godziny)

TLE

ŚwieżeSource: Space-Track

Epoka: Sep 14, 2026, 21:38 UTC

1 25758U 99029C   26257.90171682  .00000279  00000-0  74106-4 0  9992
2 25758  97.9810 226.8122 0001852 208.2261 151.8837 14.55333430447169

Śledź IRS P4 w czasie rzeczywistym z AllMySat

Download on the App Store